Weather History for Juneau, AK

Change the Weather History Date:

Saturday, September 14, 2013

  Actual Average Record
Temperature  
Mean Temperature 54 °F -  
Max Temperature 61 °F 56 °F 69 °F (1986)
Min Temperature 46 °F 45 °F 32 °F (1992)
Degree Days  
Heating Degree Days 11    
Month to date heating degree days 129  
Growing Degree Days 4 (Base 50)    
Moisture  
Dew Point 47 °F    
Average Humidity 79    
Maximum Humidity 93    
Minimum Humidity 64    
Precipitation  
Precipitation 0.00 in - - ()
Month to date precipitation 3.65  
Year to date precipitation 44.56  
Sea Level Pressure  
Sea Level Pressure 29.88 in    
Wind  
Wind Speed 3 mph (WSW)    
Max Wind Speed 10 mph    
Max Gust Speed 12 mph    
Visibility 10 miles    
Events      
T = Trace of Precipitation, MM = Missing Value Source: NWS Daily Summary

Daily Weather History Graph

Daily Weather History Graph

Search for Another Location

Airport:

Trip Planner

Search our weather history database for the weather conditions in past years. The results will help you decide how hot, cold, wet, or windy it might be!

Date:

Astronomy

Sep. 14, 2013 Rise Set
Actual Time 6:26 AM AKDT 7:19 PM AKDT
Civil Twilight 5:46 AM AKDT 7:59 PM AKDT
Nautical Twilight 4:56 AM AKDT 8:48 PM AKDT
Astronomical Twilight 4:01 AM AKDT 9:42 PM AKDT
Moon 4:55 PM AKDT (9/14) 12:10 AM AKDT (9/14)
Length of Visible Light 14h 13m
Length of Day
12h 52m
Waxing Gibbous, 74% of the Moon is Illuminated
Sep 14
Waxing Gibbous
Sep 19
Full
Sep 26
Last Quarter
Oct 4
New
Oct 11
First Quarter

Hourly Weather History & Observations

Time (AKDT) Temp. Dew Point Humidity Pressure Visibility Wind Dir Wind Speed Gust Speed Precip Events Conditions
12:53 AM 48.9 °F 46.0 °F 90% 29.97 in 10.0 mi Calm Calm - N/A   Mostly Cloudy
1:53 AM 50.0 °F 46.0 °F 86% 29.95 in 10.0 mi Calm Calm - N/A   Overcast
2:53 AM 48.9 °F 45.0 °F 86% 29.95 in 10.0 mi Calm Calm - N/A   Mostly Cloudy
3:53 AM 48.9 °F 46.0 °F 90% 29.94 in 10.0 mi Calm Calm - N/A   Mostly Cloudy
4:53 AM 46.9 °F 45.0 °F 93% 29.93 in 10.0 mi Calm Calm - N/A   Mostly Cloudy
5:40 AM 46.9 °F 45.0 °F 93% 29.92 in 10.0 mi Calm Calm - N/A   Mostly Cloudy
5:53 AM 46.9 °F 45.0 °F 93% 29.92 in 10.0 mi Calm Calm - N/A   Mostly Cloudy
6:53 AM 48.0 °F 46.0 °F 93% 29.91 in 10.0 mi Calm Calm - N/A   Mostly Cloudy
7:53 AM 48.9 °F 46.0 °F 90% 29.91 in 10.0 mi Calm Calm - N/A   Mostly Cloudy
8:53 AM 52.0 °F 46.0 °F 80% 29.90 in 10.0 mi Calm Calm - N/A   Mostly Cloudy
9:53 AM 53.1 °F 46.9 °F 80% 29.91 in 10.0 mi West 5.8 mph - N/A   Mostly Cloudy
10:53 AM 55.0 °F 48.0 °F 77% 29.89 in 10.0 mi Calm Calm - N/A   Mostly Cloudy
11:53 AM 57.0 °F 50.0 °F 77% 29.88 in 10.0 mi WSW 9.2 mph - N/A   Mostly Cloudy
12:53 PM 59.0 °F 50.0 °F 72% 29.88 in 10.0 mi SW 10.4 mph - N/A   Mostly Cloudy
1:53 PM 61.0 °F 48.9 °F 64% 29.87 in 10.0 mi WSW 5.8 mph - N/A   Mostly Cloudy
2:53 PM 59.0 °F 48.0 °F 67% 29.86 in 10.0 mi WSW 10.4 mph - N/A   Mostly Cloudy
3:53 PM 57.9 °F 48.9 °F 72% 29.86 in 10.0 mi WSW 6.9 mph - N/A   Mostly Cloudy
4:53 PM 59.0 °F 48.9 °F 69% 29.85 in 10.0 mi Calm Calm - N/A   Mostly Cloudy
5:53 PM 55.9 °F 48.9 °F 77% 29.83 in 10.0 mi WSW 4.6 mph - N/A   Scattered Clouds
6:53 PM 53.1 °F 48.0 °F 83% 29.83 in 10.0 mi WSW 4.6 mph - N/A   Mostly Cloudy
7:53 PM 52.0 °F 48.0 °F 86% 29.83 in 10.0 mi Calm Calm - N/A   Mostly Cloudy
8:53 PM 50.0 °F 46.9 °F 89% 29.83 in 10.0 mi Calm Calm - N/A   Mostly Cloudy
9:53 PM 46.9 °F 45.0 °F 93% 29.83 in 10.0 mi Calm Calm - N/A   Mostly Cloudy
10:53 PM 46.9 °F 44.1 °F 90% 29.82 in 10.0 mi Calm Calm - N/A   Scattered Clouds
11:53 PM 46.0 °F 45.0 °F 96% 29.81 in 10.0 mi Calm Calm - N/A   Scattered Clouds